Showing default

COSMOS 1285, 12627

Orbit data source: Space-Track

COSMOS 1285, 12627 is a payload satellite owned by PVO (CIS) in HEO that was launched on Tue, 04 Aug 1981 UTC via an MOLNIYA 8K78M launch vehicle from the Plesetsk Missile And Space Complex (PKMTR). Payloads include a variety of satellites, spacecraft, and rockets equipped with specific instruments for various scientific and technological missions. These include communications satellites like Starlink; space stations such as the ISS; scientific satellites like the Hubble; Earth observation satellites from companies like Planet Labs, Umbra, and HawkEye 360; GPS; miniature CubeSats for education and research; and military/defense satellites.

Loading next visibility...
COSMOS 1285 details
Identifier
12627, 1981-071A
Orbit
HEO
Last TLE update1 day ago
Origin
Flag of CISPVO (CIS)
ManufacturerNPOL/KOMET
MissionDefense Early Warn
Bus & MotorOKO, Unknown motor
Mass~1,250 kg wet, ~1,150 kg dry
Launch date (UTC)
1981-08-04 (43 years ago)
Launch vehicle
MOLNIYA 8K78M
Launch site
Plesetsk Missile And Space Complex (PKMTR)
Object type
Payload
Rocket body
Debris
Shape & HBRIrr + 6 Pan, 4.2 m
Radar Cross Section15.540 m², Large (>1 m²)

Expand to show TLE details & history

TLE from 1 day ago
0 COSMOS 1285
1 12627U 81071A   24360.47720605  .00000528  00000-0  00000-0 0  9996
2 12627  68.1615 125.9545 6279159   5.4353 357.2628  1.98056710235827
Epoch: 2024-12-25T11:27Z
Definitive object data (Epoch: 2024-12-25T11:27:10.602Z)
Latitude-8.27868°
Longitude-143.63937°
Altitude3,700.433 km
Speed8.014 km/s
True Right ascension08h 10m 30s
True Declination-8° 14' 39"
Sunlit
Object was in daylight at TLE epoch
Visualization TLE readout
Latitude-57.5343°
Longitude-179.27715°
Altitude7,049.713 km
Speed6.675 km/s
Apparent Right ascension07h 43m 40s
Apparent Declination-57° 36' 58"
Sunlit
Object is in daylight
Visualization observer readout
Local Sidereal Time22:45:27
Azimuth136.812° SSE
Elevation-56.106°
Doppler factor1
Orbital elements
Apogee altitude37,222.332 km
Perigee altitude3,587.391 km
Semi-major axis26,782.998 km
Eccentricity0.6279159
Inclination68.1615°
RAAN125.9545°
Arg. of periapsis5.4353°
True anomaly344.75281°
Mean anomaly357.2628°
Eccentric anomaly352.67721°
Mean motion0.49517 °/min
BSTARUnknown
Orbital period727.02 mins
Loading maneuver chart data...
Loading historical data...
Loading historical data...
Loading historical data...
Loading historical data...
Loading historical data...
Loading historical data...
Loading historical data...

COSMOS 1285 Visibility forecast

Observer location: undefined°, undefined

Span
Click to sort rows by Start time (UTC) header in descending order
Start Az.
Max El. time (UTC)
Max El. Az.
Max El.
End time (UTC)
End Az.
44 mins2024-12-27 01:03:09.120Z323.314° NNW2024-12-27 01:22:09.120Z312.82° NW11.674°2024-12-27 01:47:09.120Z303.674° NW
517 mins2024-12-27 12:07:09.120Z252.211° W2024-12-27 12:23:09.120Z325.954° NNW38.416°2024-12-27 20:44:09.120Z165.372° S
|